Погода в Фалькенберге

Швеция     56°54′28″N   12°30′00″E
темп.,
°C
ветер,
м/с
пор.,
м/с
влажн.,
%
обл.,
%
осадки,
мм/ч
давл.,
гПа
погр.,
м
6 мая, чт
чт623:00+6ссз3595100 0.6 989382
02:00+4с2597100 0.7 991342
05:00+3ссз3697100 0.2 992441
08:00+3ссз3599100 0.5 994408
11:00+3ссз3698100 1.3 996454
14:00+4сз3596100 1.8 998524
17:00+4сз4595100 0.6 999557
20:00+4ссз149191 1.1 1000489
7 мая, пт
пт723:00+3зсз119096 0.1 100258
02:00+2св229198 0.2 100239
05:00+2всв118873 0.0 100226
08:00+4св0178100 0.0 1003188
11:00+7з336790 0.1 10051015
14:00+9з565842 0.3 10051403
17:00+9зсз57595 0.1 10061245
20:00+7з357456 0.1 1007348
8 мая, сб
сб823:00+4з128774 0.3 100860
02:00+4з24904 0.8 1008131
05:00+4з488816 0.3 1009290
08:00+7з687948 0.4 10101172
11:00+9з795831 0.3 10111665
14:00+10з695398 0.4 10121799
17:00+10зюз485289 0.1 10131578
20:00+8ююз3570100 0.1 1012159
9 мая, вс
вс923:00+7ююз3778100 0.0 1012202
02:00+7ююв41176100 0.0 1011482
05:00+7ююв61278100 0.3 10081136
08:00+7ююв71495100 4.8 1005939
11:00+8ю61397100 2.1 1004614
14:00+13ююз51191100 2.3 1005496
17:00+15ююз5108210 0.0 1006537
20:00+14ююв3885100 0.0 1006224
10 мая, пн
пн1023:00+14юв4128592 0.0 1006315
02:00+14юв6157989 0.1 1005425
05:00+13ююв6158175 0.0 1004415
08:00+13юв51090100 0.8 1004316
11:00+15ю7167899 0.3 1007639
14:00+18ююз6116997 0.3 1006813
17:00+17ююз51077100 0.0 1008601
20:00+13ююз239099 0.0 100997